{"data":{"norad_id":69651,"epoch":"2026-09-19T21:48:55.350144Z","epoch_age_seconds":72738,"freshness":"FRESH","line1":"1 69651U 26143C   26262.90897396  .00013343  00000+0  41485-3 0  9990","line2":"2 69651  97.2847 306.1311 0001217  87.7512 272.3870 15.33447604 15127","mean_motion":15.33447604,"eccentricity":0.0001217,"inclination_deg":97.2847,"raan_deg":306.1311,"arg_perigee_deg":87.7512,"mean_anomaly_deg":272.387,"bstar":0.00041485,"rev_number":1512,"period_min":93.906045191486,"perigee_km":464.70255188282,"apogee_km":466.36830175151,"semimajor_km":6843.6724268172,"source":"CELESTRAK","updated_at":"2026-09-20T09:00:44.247104Z"}}